Tracking 28052 objects as of 24-Sep-2023
HD Live streaming from Space Station
objects crossing your sky now

STARLINK-30302

Track STARLINK-30302 now!
10-day predictions
STARLINK-30302 is classified as:


NORAD ID: 57664
Int'l Code: 2023-124B
Perigee: 515.4 km
Apogee: 518.0 km
Inclination: 53.1 °
Period: 94.8 minutes
Semi major axis: 6887 km
RCS: Unknown
Launch date: August 22, 2023
Source: United States (US)
Launch site: AIR FORCE WESTERN TEST RANGE (AFWTR)
Your satellite tracking list
Your tracking list is empty




NASA's NSSDC Master Catalog

Two Line Element Set (TLE):
1 57664U 23124B   23266.93121691  .00054568  00000-0  25888-2 0  9992
2 57664  53.0563  45.7868 0001851 111.4848 248.6344 15.18766485  6303
Source of the keplerian elements: AFSPC